SONATE-2
1 59112U 24043Q   26244.39203321  .00038765  00000-0  40052-3 0  9995
2 59112  97.5613  39.8456 0005000 277.0068  83.0622 15.64661454139782
GRBBeta
1 60237U 24128C   26244.59801801  .00002195  00000-0  15847-3 0  9990
2 60237  61.9902 308.0825 0029649 151.4166 208.8561 15.07113517117782
Curium One
1 60242U 24128H   26244.56908387  .00004016  00000-0  23367-3 0  9990
2 60242  61.9782 295.0384 0028724 146.1844 214.1091 15.13495759118019
ROBUSTA-3A
1 60243U 24128J   26244.57811284  .00003833  00000-0  22885-3 0  9991
2 60243  61.9863 297.9105 0030645 143.2823 217.0380 15.12611271117977
CatSat
1 60246U 24125J   26244.55118062  .00069654  00000-0  59456-3 0  9990
2 60246  97.1982  98.5808 0014601 249.4063 110.5634 15.69161680119323
HYPERVIEW-1G (RS66S)
1 61772U 24199AP  26230.11543498  .07890463  24672-5  93922-3 0  9997
2 61772  97.2456 114.2453 0006603 245.8477 114.2131 16.36574258144515
AO-123
1 61781U 24199AY  26244.57284613  .00005615  00000-0  15851-3 0  9992
2 61781  97.2873 112.5611 0014620  40.5305 319.7025 15.36678902145653
LASARsat
1 62391U 24247Q   26244.15335599  .00033482  00000-0  56452-3 0  9993
2 62391  44.9720 193.8298 0007482 107.5052 252.6658 15.51109426 95091
CroCube
1 62394U 24247T   26244.55462314  .00036079  00000-0  55045-3 0  9998
2 62394  44.9694 187.3997 0007894 122.0400 238.1261 15.53850509 95203
JINJUSat 1B
1 63210U 25052A   26244.50048120  .00011333  00000-0  32837-3 0  9991
2 63210  97.3883 141.4367 0004074 137.9537 222.2020 15.35717355 81807
NUSHSAT 1
1 63211U 25052B   26244.21177929  .00015017  00000-0  39337-3 0  9995
2 63211  97.3855 142.0064 0003828 138.3678 221.7859 15.38789919 81829
TEVEL2-4
1 63213U 25052D   26243.69320074  .00016952  00000-0  46853-3 0  9999
2 63213  97.3781 140.3011 0002822 146.4725 213.6699 15.37102894 81707
TEVEL2-5
1 63214U 25052E   26244.63469826  .00013247  00000-0  36905-3 0  9995
2 63214  97.3777 141.1704 0002786 145.1040 215.0388 15.36913063 81849
TEVEL2-6
1 63215U 25052F   26244.51854318  .00013580  00000-0  37869-3 0  9997
2 63215  97.3783 141.0388 0002710 145.9026 214.2393 15.36877813 81820
TEVEL2-1
1 63217U 25052H   26244.64147885  .00012471  00000-0  35502-3 0  9997
2 63217  97.3754 140.6896 0002349 159.0725 201.0616 15.36253484 81823
TEVEL2-3
1 63218U 25052J   26244.24209866  .00013309  00000-0  37791-3 0  9995
2 63218  97.3762 140.3230 0002149 155.0274 205.1074 15.36317151 81763
TEVEL2-2
1 63219U 25052K   26244.64121433  .00012634  00000-0  35945-3 0  9992
2 63219  97.3755 140.6936 0002350 160.2042 199.9294 15.36267185 81829
TEVEL2-9
1 63237U 25052AD  26244.20030863  .00012133  00000-0  37010-3 0  9999
2 63237  97.3815 139.4512 0004375 213.0381 147.0589 15.34074143 81676
TEVEL2-7
1 63238U 25052AE  26244.45295410  .00011293  00000-0  34849-3 0  9991
2 63238  97.3814 139.5846 0004395 211.9881 148.1096 15.33725640 81704
TEVEL2-8
1 63239U 25052AF  26244.20089579  .00011559  00000-0  35681-3 0  9992
2 63239  97.3821 139.3075 0004412 215.0399 145.0554 15.33709097 81662
SPIRONE
1 66657U 25274H   26244.35569770  .00001656  00000-0  16122-3 0  9993
2 66657  97.7472 172.5679 0013401 116.9576 243.3015 14.93803875 41594
K-HERO
1 66660U 25274L   26244.54052217  .00001486  00000-0  14379-3 0  9994
2 66660  97.7478 172.9665 0015207 120.9279 239.3438 14.94199596 41632
SNUGLITE-III DURI
1 66661U 25274M   26244.32611939  .00000916  00000-0  90682-4 0  9992
2 66661  97.7477 172.7757 0015762 122.5712 237.7033 14.94210593 41609
SAKHACUBE-CHOLBON
1 67290U 25313AU  26244.51132107  .00006545  00000-0  25600-3 0  9992
2 67290  97.3872 318.6355 0010580  88.5532 271.6918 15.26128620 37612
RS95S (QMR-KWT-2)
1 67291U 25313AV  26244.15328614  .00010522  00000-0  38603-3 0  9990
2 67291  97.3870 318.6472 0009999  87.8573 272.3811 15.28099214 37584
Ten-Koh2
1 68261U 25241B   26244.46059870  .00004320  00000-0  18541-3 0  9995
2 68261  51.6661 316.3781 0007348  35.8030 324.3440 15.24755218 26547
JACK-002
1 68417U 26067B   26243.87690803  .00004927  00000-0  23045-3 0  9994
2 68417  97.4644 201.6046 0003165  51.6080 308.5439 15.20218240 23446
DISCO 2
1 68431U 26067R   26243.84324966  .00006429  00000-0  30080-3 0  9997
2 68431  97.4675 201.5682 0004185  90.1111 270.0604 15.20088053 23430
HADES-SA (SpinnyONE)
1 68446U 26067AG  26244.37501135  .00013570  00000-0  60623-3 0  9998
2 68446  97.4467 201.6866 0007361 150.5172 209.6480 15.21438886 23509
PARUS-6U1
1 68456U 26067AS  26244.46180404  .00003584  00000-0  17840-3 0  9998
2 68456  97.4626 201.7192 0006485 142.2059 217.9632 15.18217640 23508
SAL-E
1 68458U 26067AU  26244.43821113  .00005563  00000-0  27107-3 0  9992
2 68458  97.4552 201.5994 0006439 150.3736 209.7864 15.18728267 23505
FSI-SAT 2
1 68792U 26088A   26244.37365785  .00003127  00000-0  21059-3 0  9991
2 68792  97.5170  31.7949 0013754 202.1443 157.9193 15.07348124 19765
OrigamiSat 2
1 68795U 26088D   26244.39403291  .00008315  00000-0  51034-3 0  9991
2 68795  97.5170  32.2262 0014974 172.1803 187.9662 15.10270286 19797
ARICA 2
1 68796U 26088E   26244.36813026  .00003534  00000-0  22722-3 0  9990
2 68796  97.5167  32.0922 0015649 172.6520 187.4942 15.08948636 19789
WASEDA-SAT-ZERO-II
1 68797U 26088F   26244.34742654  .00004443  00000-0  28132-3 0  9998
2 68797  97.5170  32.1146 0015473 171.5477 188.6015 15.09386507 19785
MANGARO-II-Piscus
1 68798U 26088G   26244.40403504  .00002605  00000-0  16700-3 0  9990
2 68798  97.5181  32.2111 0018980 175.1045 185.0374 15.09251249 19792
CO-128
1 69912U 26156AV  26244.31769789  .00001004  00000-0  10733-3 0  9997
2 69912  97.7494 143.7753 0001977 356.5254   3.5951 14.90913315  8347
MARINA
1 69920U 26156BD  26244.54195054  .00001943  00000-0  19656-3 0  9994
2 69920  97.7459 144.0757 0006830 341.1051  18.9913 14.92121643  8382
IO-86
1 40931U          26199.45381863  .00000000  00000-0  77536-4 0    07
2 40931   6.0006 322.6653 0012733 338.8432 273.6875 14.79294310    03
LILIUM-4                
1 71922C 26067AC  26089.50133053 -.00014632  00000+0 -74472-3 0    04
2 71922  97.4497  49.1617 0004341   5.9603 355.7042 15.16896692    16
